IRIDIUM 33 DEB, 36390

Orbit data source: Space-Track

IRIDIUM 33 DEB, 36390 is space debris in LEO originally from a launch on Sun, 14 Sep 1997 UTC launched from the Tyuratam Missile And Space Complex (TTMTR). The debris from Iridium 33, an American commercial communications satellite, has been tracked extensively since its accidental collision with the defunct Russian satellite Cosmos 2251 in 2009. This event, occurring at high speed in low Earth orbit (LEO), generated thousands of pieces of space debris, significantly increasing the risk of further collisions. The Iridium 33 debris cloud has impacted space traffic management and orbital debris mitigation strategies, making it a subject of ongoing study in space situational awareness.

Loading next visibility...
Identifier
36390, 1997-051VU
Orbit
LEO
Country
Flag of USUS
Related business
Manufacturer
Unknown
Mission
Spacecraft
Bus & Motor
Unknown
Mass
Unknown
Launch date (UTC)
1997-09-14 (29 years ago)
Launch vehicle
Unknown
Launch site
Tyuratam Missile And Space Complex (TTMTR)
Object type
Payload
Rocket body
Debris
Shape & HBR
Unknown shape, 0.1 m
Radar Cross Section
Small (<0.1 m²)

Expand to show TLE details & history
Last TLE update: 2 weeks ago

TLE from 2 weeks ago
0 IRIDIUM 33 DEB
1 36390U 97051VU  26088.17281346  .00011185  00000-0  16396-2 0  9992
2 36390  86.2880 250.5272 0030013 157.4006 202.8542 14.75182873678301
Epoch: 2026-03-29T04:08Z
TLE epoch observation values (Epoch: 2026-03-29T04:08:51.082Z)
Latitude
-0.00005°
Longitude
1.73184°
Altitude
667.115 km
Speed
7.513 km/s
True Right ascension
16h 42m 06s
True Declination
0° 00' 00"
Sunlit
Object was in full shadow at epoch
Visualization orbit readout
Latitude
Unknown
Longitude
Unknown
Altitude
Unknown
Speed
Unknown
Apparent Right ascension
Unknown
Apparent Declination
Unknown
Sunlit
N/A
Visualization observer readout
Local Sidereal Time
02:39:34
Azimuth
Unknown
Elevation
Unknown
Doppler factor
Unknown
Orbital elements
Apogee altitude
662.548 km
Perigee altitude
620.412 km
Semi-major axis
7,019.617 km
Eccentricity
0.003
Inclination
86.288°
RAAN
250.5272°
Arg. of periapsis
157.4006°
True anomaly
202.72108°
Mean anomaly
202.8542°
Eccentric anomaly
202.7876°
Mean motion
3.6904 °/min
Orbital period
97.55 mins
BSTAR
0.0016396
Loading maneuver chart data...
Computing Atmospheric mass density...

Documentation

Showing up to 5 results
|